#timestamp,LO_Frequency,Hit,StdDev 
1670241615.1,286046998.5,Y
1670241635.9,286047000.0,P
1670241655.7,286047000.7,N
1670241675.5,286046998.5,N
1670241695.4,286047000.7,N
1670241715.2,286047001.2,N
1670241735.0,286046998.7,N
1670241736.0,286046998.7,N
1670241755.8,286046998.6,N
1670241775.6,286046996.5,Y
1670241795.5,286047001.2,P
1670241815.3,286046998.7,N
1670241835.1,286046999.3,N
1670241855.9,286046998.3,N
1670241875.7,286046998.3,N
1670241895.6,286046999.5,N
1670241915.4,286046999.6,N
1670241935.2,286046997.1,Y
1670241955.1,286046998.4,P
1670241956.0,286046998.4,P
1670241975.8,286047000.0,N
1670241995.7,286047000.0,N
1670242015.5,286047001.2,N
1670242035.3,286046998.6,N
1670242055.2,286046998.8,N
1670242075.9,286046998.6,N
1670242095.7,286046997.1,Y
1670242115.6,286046999.2,P
1670242135.4,286046998.9,P
1670242155.3,286046998.8,P
1670242175.1,286046998.4,Y
1670242176.0,286046998.4,P
1670242195.8,286047001.2,P
1670242215.7,286047000.5,N
1670242235.5,286047001.0,N
1670242255.3,286046998.8,N
1670242275.2,286046997.0,N
1670242295.0,286046999.6,N
1670242295.9,286046999.6,N
1670242315.8,286046996.5,N
1670242335.6,286046996.7,N
1670242355.4,286046997.2,N
1670242375.3,286046997.2,N
1670242395.1,286046997.5,N
1670242415.8,286046995.4,N
1670242435.7,286046995.6,N
1670242455.5,286046995.7,N
1670242475.4,286046997.6,N
1670242495.2,286046997.8,N
1670242515.0,286046997.0,N
1670242515.9,286046997.0,N
1670242535.8,286046996.8,N
1670242555.6,286046997.5,N
1670242575.4,286046997.0,N
1670242595.3,286046996.6,N
1670242615.1,286046996.6,N
1670242635.9,286046997.2,N
1670242655.7,286046997.2,N
1670242675.5,286046998.0,N
1670242695.4,286046997.3,N
1670242715.2,286046997.6,N
1670242735.0,286046997.2,N
1670242735.9,286046997.2,N
1670242755.8,286046997.4,N
1670242775.6,286046997.1,N
1670242795.5,286046997.7,N
1670242815.3,286046995.0,Y
1670242835.1,286047001.2,P
1670242855.9,286046999.1,N
1670242875.7,286046999.4,N
1670242895.5,286046999.2,N
1670242915.4,286046998.4,N
1670242935.2,286046999.4,N
1670242955.1,286046997.0,N
1670242956.0,286046997.0,N
1670242975.8,286046997.2,N
1670242995.7,286046997.5,N
1670243015.5,286046997.0,N
1670243035.3,286046996.7,N
1670243055.2,286046997.7,N
1670243075.0,286046995.0,Y
1670243075.9,286046995.0,P
1670243095.8,286046998.8,N
1670243115.6,286046999.4,N
1670243135.4,286046998.3,N
1670243155.3,286046998.5,N
1670243175.1,286046998.4,N
1670243195.8,286046998.2,N
1670243215.7,286046998.3,N
1670243235.5,286046996.9,N
1670243255.4,286046998.7,N
1670243275.2,286046999.0,N
1670243295.0,286046999.6,N
1670243295.9,286046999.6,N
1670243315.8,286046999.5,N
1670243335.6,286046999.6,N
1670243355.5,286046998.2,N
1670243375.3,286047001.1,N
1670243395.1,286046998.4,N
1670243415.9,286046998.9,N
1670243435.7,286046999.1,N
1670243455.5,286046999.1,N
1670243475.4,286046996.8,N
1670243495.2,286046996.5,Y
1670243515.1,286046998.2,P
1670243516.0,286046998.2,P
1670243535.8,286046998.2,P
1670243555.7,286047000.7,Y
1670243575.5,286047002.3,P
1670243595.3,286047002.8,N
1670243615.2,286047002.2,N
1670243635.0,286047002.0,N
1670243635.9,286047002.0,N
1670243655.7,286047000.8,N
1670243675.6,286046998.2,N
1670243695.4,286047000.8,N
1670243715.3,286047000.7,N
1670243735.1,286047001.0,N
1670243755.8,286047000.2,N
1670243775.7,286047000.3,N
1670243795.5,286047002.8,N
1670243815.4,286047000.5,N
1670243835.2,286047000.2,N
1670243855.0,286047002.7,N
1670243855.9,286047002.7,N
1670243875.8,286047002.4,N
1670243895.6,286047001.1,N
1670243915.4,286047000.0,N
1670243935.3,286047001.0,N
1670243955.1,286047000.4,N
1670243975.9,286046999.8,N
1670243995.7,286046999.9,N
1670244015.5,286047002.4,N
1670244035.4,286047000.1,N
1670244055.2,286047002.3,N
1670244075.0,286047002.5,N
1670244075.9,286047002.5,N
1670244095.8,286047002.6,N
1670244115.6,286047002.2,N
1670244135.5,286047001.9,N
1670244155.3,286047000.5,N
1670244175.1,286047000.5,N
1670244195.9,286047000.2,N
1670244215.7,286047000.3,N
1670244235.6,286047000.1,N
1670244255.4,286047002.7,N
1670244275.2,286047000.4,N
1670244295.1,286047001.8,N
1670244296.0,286047001.8,N
1670244315.8,286047001.6,N
1670244335.6,286047004.3,Y
1670244355.5,286047000.7,P
1670244375.3,286047000.0,N
1670244395.2,286047000.1,N
1670244415.9,286047000.4,N
1670244435.7,286047000.5,N
1670244455.6,286046999.9,N
1670244475.4,286047000.9,N
1670244495.2,286046998.1,Y
1670244515.1,286046998.6,P
1670244516.0,286046998.6,N
1670244535.8,286047000.8,N
1670244555.7,286046998.7,N
1670244575.5,286046998.8,N
1670244595.3,286046998.3,N
1670244615.2,286046998.4,N
1670244635.0,286046998.9,N
1670244635.9,286046998.9,N
1670244655.8,286046998.4,N
1670244675.6,286046998.1,N
1670244695.4,286046998.1,N
1670244715.3,286047000.8,N
1670244735.1,286047001.0,N
1670244755.8,286047000.0,N
1670244775.7,286047000.4,N
1670244795.5,286047001.1,N
1670244815.4,286047000.9,N
1670244835.2,286047000.4,N
1670244855.0,286046999.8,N
1670244855.9,286046999.8,N
1670244875.8,286047002.6,N
1670244895.6,286047001.8,N
1670244915.4,286047001.7,N
1670244935.3,286047002.0,N
1670244955.1,286047002.6,N
1670244975.9,286047001.7,N
1670244995.7,286047001.3,N
1670245015.5,286047001.4,N
1670245035.4,286047001.4,N
1670245055.2,286047001.8,N
1670245075.0,286047002.2,N
1670245075.9,286047002.2,N
1670245095.8,286047002.7,N
1670245115.6,286047001.4,N
1670245135.5,286047004.3,N
1670245155.3,286047003.9,N
1670245175.1,286047003.9,N
1670245195.9,286047004.2,N
